Dewpoint
71 68 69 70 64 58 55 50 57 51 53 55 55 56 58 60 59 59 68 69 67 66 68 72 76 76 76 77 77 77 76 75 75 75 75 74 75 75 74 74 75 74 74 73 73 73 73 73 72
69 69 70 66 60 55 51 51 53 53 54 56 56 56 56 59 62 65 68 69 68 66 69 72 76 76 76 76 76 76 75 75 75 75 75 74 74 74 73 73 73 73 74 74 73 73 72 72 72
69 68 65 62 56 54 52 50 51 53 55 55 55 58 59 60 63 65 67 68 67 69 71 74 76 77 76 75 76 76 76 76 75 75 74 74 74 74 74 73 74 73 72 72 72 73 72 72 71
66 69 63 58 54 49 49 50 52 52 54 55 56 58 61 63 65 66 67 66 67 68 69 74 76 75 76 75 75 75 75 75 75 74 74 74 74 74 73 74 74 73 73 73 72 72 71 71 71
68 67 60 56 54 50 49 50 52 51 53 54 58 59 62 64 65 66 65 68 65 67 68 72 76 76 76 75 76 76 75 75 75 74 74 74 74 74 74 74 74 73 73 72 72 72 72 72 71
64 59 54 54 50 49 48 50 50 50 53 55 58 60 63 65 63 64 66 65 65 64 65 69 76 76 76 75 75 75 75 75 74 74 74 74 73 73 73 73 73 73 72 72 72 72 72 71 72
59 56 50 50 42 49 48 49 49 50 52 55 58 59 63 65 64 65 65 64 64 60 64 69 70 74 76 75 74 74 74 74 74 74 74 73 73 73 72 73 72 72 72 72 71 71 71 71 72
58 55 48 42 43 49 48 50 48 49 53 56 60 59 61 64 65 64 64 63 61 59 64 67 69 70 72 72 74 74 74 74 74 74 73 73 73 73 73 73 73 72 71 71 71 70 71 72 73
58 54 47 41 46 43 47 46 50 52 54 55 56 60 63 65 64 63 63 63 64 60 62 63 65 68 69 69 72 74 74 74 74 73 73 73 74 73 72 74 73 72 72 72 72 72 72 72 74
55 51 50 45 52 45 46 43 46 49 51 54 56 60 63 64 63 63 62 62 63 60 60 61 62 65 66 63 71 69 68 68 72 72 73 74 73 72 70 72 74 73 73 72 73 74 74 73 71
51 56 58 42 44 51 43 45 46 47 49 52 56 60 62 63 63 63 62 64 64 61 59 59 63 66 65 67 66 65 65 66 69 72 72 72 71 73 73 72 70 72 72 73 73 72 72 72 71
46 50 46 44 47 46 48 46 45 46 45 51 56 60 61 62 63 62 62 63 63 62 61 61 64 69 68 65 65 63 63 65 65 69 73 72 70 69 70 72 72 73 74 71 72 73 69 70 69
45 47 47 47 47 46 46 47 47 46 46 51 56 60 60 61 62 61 61 62 63 62 61 62 65 70 69 70 65 63 63 63 63 67 70 68 68 72 72 72 73 72 71 71 70 71 69 71 71
43 45 47 47 46 45 44 46 51 50 51 52 56 58 59 60 60 60 60 61 62 63 62 63 65 69 70 70 72 68 66 63 63 63 67 71 69 72 74 70 74 73 73 72 71 71 72 70 69
44 43 47 47 45 43 45 44 46 52 52 54 54 57 58 59 60 60 60 61 62 62 63 64 66 68 71 71 71 70 66 63 63 63 69 70 71 72 74 73 73 74 75 72 72 70 73 69 63
42 43 42 44 43 42 43 44 46 54 53 54 54 54 57 58 58 60 60 61 62 63 65 65 64 66 70 72 71 68 65 63 62 62 65 70 72 74 75 73 74 76 72 69 68 67 69 64 61
33 34 34 40 40 40 43 50 56 53 53 54 55 53 54 57 58 60 60 60 61 63 65 66 66 65 69 73 71 70 72 66 63 62 64 72 72 72 74 74 74 74 74 75 71 69 70 65 60
27 27 31 35 38 39 40 45 53 50 51 53 55 55 54 55 56 59 60 60 60 63 65 68 66 71 74 71 73 68 65 65 63 63 65 72 72 73 74 72 72 73 70 72 71 72 68 65 61
29 26 29 34 38 38 40 42 45 47 48 50 54 56 54 54 56 57 59 59 60 62 65 69 71 75 71 68 68 67 64 65 63 63 70 71 73 74 74 71 74 71 72 71 71 69 70 69 64
33 28 27 32 39 38 38 38 41 40 45 47 51 54 56 55 55 56 58 58 59 62 67 71 72 76 74 69 71 67 67 63 63 64 72 72 73 74 75 76 72 73 73 73 71 71 71 62 61
34 28 28 29 33 36 34 35 37 37 38 46 48 53 55 56 55 55 57 58 59 62 67 70 74 75 75 74 71 71 69 68 63 65 67 70 73 73 75 75 72 74 73 73 72 71 71 68 61
21 24 25 25 29 30 33 29 35 36 36 42 47 50 52 55 56 54 55 57 58 61 64 70 74 76 75 77 72 73 66 63 62 65 65 69 73 73 73 75 74 74 71 75 72 70 71 70 62
20 21 25 26 25 28 30 29 30 36 36 38 43 46 49 53 55 55 54 56 58 59 61 67 74 76 76 77 76 70 71 63 63 63 73 74 77 75 71 74 75 75 71 74 73 73 74 69 65
20 19 21 25 24 22 27 28 28 30 37 37 41 43 47 51 53 55 55 55 57 58 60 64 73 77 78 78 77 77 74 71 63 66 66 67 68 70 76 73 76 77 75 75 74 75 74 73 69
18 15 15 18 19 20 23 25 30 29 30 34 39 42 46 49 52 54 55 54 56 58 60 63 72 76 78 77 77 76 76 76 74 74 67 70 65 65 73 77 78 74 78 76 77 78 76 74 71
18 14 13 20 15 16 22 22 24 27 28 31 36 39 43 49 51 54 57 56 57 60 64 66 72 76 77 77 78 78 78 71 70 72 68 67 66 65 75 77 75 76 76 76 78 73 73 75 72
19 17 12 11 12 11 14 22 23 25 26 30 32 37 40 45 49 52 55 56 56 60 65 68 72 75 77 76 78 78 78 77 72 74 75 69 74 66 71 73 75 76 76 77 78 72 76 74 74
20 19 12 12 21 17 13 19 20 27 28 29 30 32 38 44 48 50 52 57 59 58 63 68 71 75 76 76 77 77 77 78 76 76 76 75 74 76 74 74 74 76 77 77 79 75 76 76 72
19 19 17 11 13 13 14 14 19 25 28 27 29 31 35 39 47 49 50 55 59 60 60 65 69 72 75 76 76 77 77 77 78 75 76 76 78 78 76 77 76 76 76 77 78 78 76 76 76
20 20 21 20 25 13 12 12 15 18 18 25 29 31 32 37 39 44 49 53 55 60 59 62 64 67 72 74 76 76 77 77 76 77 76 77 77 79 79 77 77 76 76 77 78 76 73 75 75
Lifted_Index
-1 -1 -2 -2 -3 -2 -2 -2 -2 -2 -1 -1 -1 -1 -1 -1 -1 -1 -0 0 -0 -1 -2 -3 -4 -5 -6 -6 -6 -6 -5 -5 -6 -6 -6 -6 -6 -6 -6 -6 -6 -6 -6 -5 -5 -5 -5 -5 -5
-1 -1 -2 -2 -2 -2 -2 -2 -2 -1 -1 -1 -1 -1 -1 -1 -1 -1 -0 -0 -1 -1 -2 -3 -5 -5 -6 -6 -6 -5 -5 -5 -6 -6 -6 -6 -6 -6 -6 -5 -5 -5 -5 -5 -5 -5 -5 -5 -5
-1 -2 -2 -2 -2 -2 -2 -1 -1 -1 -1 -1 -1 -1 -1 -1 -1 -1 -0 -1 -1 -2 -3 -4 -5 -5 -5 -5 -5 -5 -5 -6 -6 -6 -6 -6 -6 -6 -5 -5 -5 -5 -5 -5 -5 -5 -5 -5 -5
-2 -2 -2 -2 -2 -2 -2 -1 -1 -1 -1 -1 -1 -1 -1 -1 -1 -1 -0 -1 -2 -2 -3 -4 -5 -5 -5 -5 -5 -5 -6 -6 -5 -5 -5 -5 -6 -5 -5 -6 -5 -5 -5 -5 -5 -5 -5 -5 -5
-3 -3 -2 -2 -1 -1 -1 -1 -1 -1 -1 -1 -1 -1 -1 -1 -1 -0 -1 -1 -2 -3 -3 -4 -5 -5 -5 -5 -5 -5 -6 -6 -5 -5 -5 -5 -5 -5 -5 -5 -5 -5 -5 -5 -5 -5 -5 -5 -5
-3 -3 -2 -2 -1 -1 -1 -0 -1 -1 -1 -1 -1 -1 -1 -1 -1 -0 -1 -2 -2 -2 -2 -3 -5 -5 -5 -5 -5 -5 -6 -5 -5 -5 -5 -5 -5 -5 -5 -5 -5 -5 -4 -4 -5 -5 -5 -5 -5
-3 -2 -2 -2 -2 -1 -1 -0 -0 -0 -1 -1 -1 -2 -2 -1 -1 -1 -1 -2 -2 -1 -1 -2 -4 -4 -5 -5 -5 -5 -5 -5 -5 -5 -5 -5 -5 -4 -5 -5 -5 -5 -4 -4 -5 -5 -5 -5 -5
-3 -2 -2 -2 -2 -1 -1 -1 -0 -1 -1 -1 -2 -2 -2 -2 -2 -1 -1 -1 -1 -1 -1 -2 -3 -3 -4 -4 -5 -5 -5 -5 -5 -5 -5 -4 -4 -4 -4 -5 -5 -4 -4 -5 -5 -5 -5 -5 -5
-2 -2 -2 -2 -1 -1 -0 -0 -0 -0 -1 -1 -2 -2 -2 -2 -2 -2 -1 -1 -1 -1 -1 -1 -2 -2 -3 -3 -4 -4 -4 -4 -4 -4 -4 -4 -5 -5 -5 -5 -5 -5 -5 -5 -5 -5 -5 -5 -5
-2 -2 -2 -1 -1 -1 0 1 1 -0 -1 -1 -2 -2 -2 -2 -2 -2 -1 -2 -2 -1 -1 -1 -1 -2 -2 -2 -3 -3 -3 -3 -4 -4 -4 -4 -5 -5 -4 -4 -5 -5 -5 -5 -5 -5 -4 -5 -5
-1 -2 -2 -1 -1 -1 -0 1 1 0 -0 -1 -2 -3 -2 -2 -2 -2 -2 -2 -2 -1 -1 -0 -1 -1 -2 -2 -2 -2 -2 -2 -3 -4 -4 -5 -5 -5 -4 -4 -4 -5 -5 -5 -5 -4 -4 -4 -4
-1 -1 -2 -1 -1 -1 -1 -1 -0 0 -0 -1 -2 -3 -3 -2 -2 -2 -2 -2 -2 -1 -1 -1 -1 -1 -2 -2 -2 -1 -1 -2 -3 -4 -4 -4 -4 -4 -4 -4 -4 -5 -5 -4 -4 -4 -4 -4 -4
-1 -1 -2 -2 -2 -2 -2 -3 -2 -1 -0 -1 -2 -2 -3 -3 -3 -3 -2 -2 -2 -1 -1 -1 -1 -2 -2 -2 -2 -1 -1 -1 -2 -3 -4 -4 -4 -4 -4 -4 -4 -4 -4 -4 -4 -4 -4 -4 -4
-1 -1 -2 -3 -3 -3 -3 -3 -3 -2 -1 -1 -1 -2 -2 -3 -3 -3 -2 -2 -2 -1 -1 -1 -2 -2 -2 -2 -2 -2 -1 -1 -1 -2 -3 -3 -4 -4 -4 -4 -4 -4 -4 -4 -4 -4 -4 -3 -3
-1 -1 -2 -3 -3 -3 -3 -3 -3 -2 -2 -2 -2 -2 -2 -2 -3 -3 -2 -2 -2 -1 -1 -1 -2 -2 -2 -3 -3 -2 -2 -1 -1 -1 -2 -3 -4 -4 -5 -5 -5 -5 -4 -4 -4 -4 -3 -2 -2
0 -1 -2 -2 -3 -3 -2 -2 -2 -3 -3 -3 -2 -2 -2 -2 -2 -2 -2 -1 -1 -1 -1 -1 -2 -2 -2 -3 -3 -3 -2 -1 -1 -1 -2 -3 -4 -5 -5 -5 -5 -5 -4 -4 -3 -3 -3 -2 -1
2 1 -0 -2 -2 -2 -2 -1 -2 -3 -3 -3 -3 -2 -2 -2 -2 -2 -2 -1 -1 -1 -1 -1 -1 -2 -3 -3 -3 -3 -2 -1 -1 -1 -2 -3 -4 -5 -5 -5 -5 -4 -4 -4 -4 -3 -3 -1 -0
2 1 -0 -1 -2 -2 -2 -2 -2 -2 -3 -3 -3 -3 -2 -1 -1 -1 -1 -1 -1 -1 -1 -1 -2 -2 -3 -3 -3 -2 -2 -1 -1 -1 -2 -3 -4 -5 -5 -5 -4 -4 -4 -4 -4 -3 -3 -2 -0
1 1 -0 -1 -1 -2 -2 -2 -2 -2 -3 -3 -4 -3 -2 -2 -1 -1 -1 -0 -0 -0 -1 -2 -3 -3 -3 -3 -3 -2 -1 -1 -0 -1 -2 -3 -4 -5 -5 -5 -4 -4 -4 -4 -4 -3 -3 -2 -0
1 1 -0 -1 -1 -2 -2 -2 -2 -2 -3 -3 -4 -3 -3 -2 -1 -0 -0 0 0 -1 -2 -3 -4 -4 -4 -3 -3 -2 -1 -1 -1 -1 -2 -4 -4 -5 -5 -5 -4 -4 -4 -4 -4 -3 -3 -1 -0
3 2 1 -0 -1 -1 -1 -1 -1 -1 -2 -2 -3 -3 -3 -2 -1 -0 0 0 0 -1 -2 -3 -4 -5 -4 -4 -3 -2 -2 -1 -1 -1 -3 -4 -5 -5 -5 -5 -4 -4 -4 -4 -4 -3 -3 -1 -0
4 4 2 0 -0 -1 -1 -1 -1 -1 -1 -1 -2 -3 -3 -3 -1 -0 0 0 0 -1 -2 -3 -4 -5 -5 -4 -4 -3 -2 -1 -1 -2 -3 -4 -5 -5 -5 -5 -4 -4 -4 -4 -4 -4 -3 -2 -1
5 4 3 2 1 0 0 -0 -0 -1 -1 -1 -2 -2 -3 -3 -2 -1 0 1 0 -0 -1 -2 -4 -5 -5 -5 -5 -4 -3 -1 -1 -2 -3 -4 -5 -5 -5 -5 -4 -4 -4 -4 -4 -4 -4 -3 -2
5 5 4 2 1 1 1 0 -0 -0 -1 -1 -1 -2 -2 -2 -2 -1 -0 0 0 0 -0 -2 -4 -5 -6 -6 -5 -5 -4 -3 -2 -2 -3 -4 -4 -5 -5 -5 -5 -5 -5 -5 -5 -5 -5 -4 -3
6 5 3 2 1 2 2 1 1 -0 -1 -1 -1 -1 -1 -2 -2 -1 -1 0 0 0 -0 -2 -4 -5 -6 -6 -6 -5 -5 -4 -3 -3 -3 -3 -3 -4 -5 -6 -6 -6 -6 -6 -6 -6 -6 -5 -4
6 6 4 1 1 1 1 1 1 0 -0 -0 -0 -1 -1 -1 -1 -1 -1 -0 0 -0 -1 -2 -4 -5 -6 -6 -6 -6 -5 -4 -3 -3 -3 -3 -3 -4 -5 -6 -6 -6 -6 -6 -6 -6 -6 -6 -5
6 6 4 2 0 -0 0 1 1 0 0 1 1 1 0 -1 -1 -1 -1 -1 -1 -1 -2 -3 -4 -6 -6 -6 -6 -6 -6 -5 -4 -4 -4 -4 -4 -4 -5 -6 -6 -6 -7 -7 -7 -7 -6 -6 -6
6 5 5 3 1 -0 -1 -0 -0 0 1 2 2 2 1 0 -1 -1 -1 -2 -2 -2 -2 -3 -4 -5 -6 -6 -6 -6 -6 -6 -6 -6 -6 -6 -6 -6 -6 -6 -6 -7 -7 -7 -8 -7 -7 -7 -7
6 5 5 4 2 0 -1 -1 -0 0 1 2 3 3 2 1 -0 -1 -1 -2 -2 -2 -2 -3 -3 -5 -6 -6 -6 -7 -7 -7 -7 -7 -7 -7 -7 -7 -7 -7 -7 -7 -7 -8 -8 -8 -7 -7 -7
5 5 5 4 3 1 -0 -1 -0 0 1 2 3 3 2 2 1 -0 -1 -2 -2 -2 -2 -2 -3 -4 -5 -6 -6 -7 -7 -7 -7 -7 -7 -8 -8 -8 -8 -8 -8 -7 -8 -8 -9 -8 -8 -8 -8